Location: Four Corners
(38.2757°N, 122.4608°W)
Time: 02:37:36
(UTC+00:00)

NOSS 2 (A) - Pass Details

Date: 08 December 2019
Orbit: 273 x 1575 km, 63.3° (Epoch: 06 February)

Event Time Altitude Azimuth Distance (km) Brightness Sun altitude
Rises 01:53:09 0° 330° (NNW) 1,970 8.3 -12.3°
Reaches altitude 10° 01:55:05 10° 335° (NNW) 1,112 7.0 -12.6°
Maximum altitude 01:57:25 56° 55° (NE) 333 3.9 -13.1°
Enters shadow 01:59:06 16° 133° (SE) 838 6.0 -13.4°
